Location: Schommer Observatory
(40.5200°N, 74.4500°W)
Time: 05:06:12
(UTC-04:00)

ISS - Pass Details

Date: 23 May 2018
Orbit: 402 x 407 km, 51.6° (Epoch: 24 May)

Event Time Altitude Azimuth Distance (km) Brightness Sun altitude
Rises 02:25:13 0° 312° (NW) 2,319 0.2 -25.4°
Reaches altitude 10° 02:27:31 10° 325° (NW) 1,457 -0.7 -25.2°
Maximum altitude 02:30:20 26° 25° (NNE) 830 -1.6 -25.0°
Drops below altitude 10° 02:33:09 10° 85° (E) 1,452 -0.7 -24.7°
Sets 02:35:26 0° 98° (E) 2,309 0.2 -24.5°
